Location: Cabo di Oristano
(39.8500°N, 8.4333°E)
Time: 16:34:03
(UTC+00:00)

Cosmos 2142 Rocket - Pass Details

Date: 31 January 2023
Orbit: 951 x 1005 km, 83.0° (Epoch: 30 March)

Event Time Altitude Azimuth Distance (km) Brightness Sun altitude
Rises 04:17:53 0° 350° (N) 3,730 7.4 -26.6°
Reaches altitude 10° 04:20:27 10° 348° (NNW) 2,772 6.7 -26.1°
Maximum altitude 04:26:45 67° 267° (W) 1,063 4.4 -24.9°
Drops below altitude 10° 04:32:56 10° 186° (S) 2,719 6.8 -23.7°
Sets 04:35:25 0° 183° (S) 3,655 7.5 -23.3°
